Miscellaneous Local Product
Issued by NWS Hastings, NE

Home | Current Version | Previous Version | Graphics & Text | Print | Product List | Glossary On
Versions: 1 2 3 4 5 6 7 8 9 10 11 12 13 14 15 16 17 18 19 20 21 22 23 24 25 26 27 28 29 30 31 32 33 34 35 36 37 38 39 40 41 42 43 44 45 46 47 48 49 50
000
AXUS43 KGID 271802
MISGRI

GID CWA HOURLY WEATHER ROUNDUP
NATIONAL WEATHER SERVICE HASTINGS NE
100 PM CDT SUN JUL 27 2014

NOTE: "FAIR" INDICATES FEW OR NO CLOUDS BELOW 12,000 FEET WITH NO
SIGNIFICANT WEATHER AND/OR OBSTRUCTIONS TO VISIBILITY.

...SOUTH CENTRAL NEBRASKA...

CITY           SKY/WX    TMP DP  RH WIND       PRES   REMARKS
GRAND ISLAND   SUNNY     83  52  34 N21G28    30.19F
HASTINGS       SUNNY     82  51  34 NW14G21   30.20F
KEARNEY        SUNNY     82  48  30 NW15G22   30.23S
ORD            SUNNY     81  55  40 N15       30.19F
YORK           SUNNY     79  57  47 N13       30.17F
AURORA         SUNNY     80  56  43 N14G21    30.18F
LEXINGTON      SUNNY     81  51  35 NW7       30.25S
HOLDREGE       SUNNY     81  51  34 NW7       30.23F
HEBRON         SUNNY     83  48  29 NW9G16    30.16F

...NEBRASKA PANHANDLE...

CITY           SKY/WX    TMP DP  RH WIND       PRES   REMARKS
CHADRON        SUNNY     79  46  31 CALM      30.31F
ALLIANCE       MOSUNNY   79  43  27 VRB3      30.34F
SCOTTSBLUFF    MOSUNNY   78  50  37 VRB3      30.35F
SIDNEY         PTSUNNY   81  45  28 E10       30.37S

...WESTERN AND NORTH CENTRAL NEBRASKA...

CITY           SKY/WX    TMP DP  RH WIND       PRES   REMARKS
VALENTINE      SUNNY     80  49  33 N16G25    30.26F
AINSWORTH      SUNNY     77  48  35 NW16G29   30.25S
ONEILL         MOSUNNY   79  51  37 NW18G28   30.20F
BROKEN BOW     SUNNY     80  54  40 N17G33    30.24S
IMPERIAL       LGT RAIN  82  48  30 NE10      30.31R
NORTH PLATTE   SUNNY     82  50  32 N10       30.26F
MCCOOK         MOSUNNY   86  49  27 N8G21     30.26S

...EASTERN NEBRASKA...

CITY           SKY/WX    TMP DP  RH WIND       PRES   REMARKS
NORFOLK        SUNNY     78  55  44 NW24G32   30.15S
SO SIOUX CITY  MOSUNNY   77  58  51 NW18G28   30.09S
ALBION         SUNNY     77  54  44 NW16G23   30.18S
OMAHA EPPLEY   MOSUNNY   81  56  42 N20       30.09S
OFFUTT AFB     SUNNY     81  58  45 NW20      30.08F
MILLARD        SUNNY     80  57  45 NW16G28   30.09F
LINCOLN        SUNNY     84  54  35 N21G30    30.13F
NEBRASKA CITY  SUNNY     80  55  41 NW16G25   30.10S
BEATRICE       SUNNY     83  58  43 N18G24    30.13F
FALLS CITY     NOT AVBL

...NORTHERN KANSAS...

CITY           SKY/WX    TMP DP  RH WIND       PRES   REMARKS
GOODLAND       SUNNY     81  53  37 E8G18     30.32S
HILL CITY      PTSUNNY   89  48  24 NE15      30.22S
NORTON         PTCLDY    86  41  20 N6        30.23S
PHILLIPSBURG   MOSUNNY   84  46  26 N9        30.20F
SMITH CENTER   SUNNY     86  48  26 NW10G17   30.19F
HAYS           PTSUNNY   84  57  39 NE13G23   30.20F
RUSSELL        PTSUNNY   86  55  34 NE10G22   30.17F
CONCORDIA      PTSUNNY   84  52  33 N14G22    30.16S
SALINA         CLOUDY    87  55  33 N13       30.15S
TOPEKA         CLOUDY    90  55  30 NW14G21   30.07F



USA.gov is the U.S. government's official web portal to all federal, state and local government web resources and services.